Weather in Guni

Russia / Republic of Dagestan     43°01′49″N   46°41′57″E
В апреле 2022 года жителям России запретили посещать сайт meteo.paraplan.net по решению Генеральной прокуратуры. Аудитория сайта уменьшилась в 10 раз. Владельцы сайта не видят смысла в поддержке погодного сервера в таких условиях. Сайт будет закрыт в октябре.
temp.,
°C
wind,
m/s
gust,
m/s
humid.,
%
clouds,
%
prec.,
mm/h
press.,
hPa
HPBL,
m
29 september, thu
thu2900:00+16w4441100 0.0 101050
03:00+15wsw335715 0.0 101133
06:00+15wsw224327 0.0 101115
09:00+20nnw33411 0.0 1012612
12:00+22nnw43411 0.0 10131422
15:00+22n324694 0.0 10131762
18:00+17ese226672 0.0 101572
21:00+16s22744 0.0 101726
30 september, fri
fri3000:00+15ssw22705 0.0 101719
03:00+15ssw227234 0.0 101812
06:00+14s22754 0.0 101921
09:00+20e33460 0.0 1018900
12:00+23e44360 0.0 10181434
15:00+22e44350 0.0 10171125
18:00+17sse22501 0.0 101924
21:00+16sw125423 0.0 102012
1 october, sat
sat100:00+16sw115569 0.0 102012
03:00+17wsw115391 0.0 102011
06:00+16w115778 0.1 102111
09:00+19ene115358 1.7 1022292
12:00+22nne334412 0.4 10201491
15:00+23n343528 0.9 10201893
18:00+17wsw22500 0.0 102112
21:00+16sw32484 0.0 102120
2 october, sun
sun200:00+16sw22480 0.0 102014
03:00+15ssw225033 0.0 101915
06:00+15ssw22520 0.0 101916
09:00+21e22384 0.0 1017720
12:00+24e3434100 0.0 10141727
15:00+23e44367 0.0 1012969
18:00+18sse3457100 0.0 101163
21:00+18s3351100 0.0 101047
3 october, mon
mon300:00+16ssw335060 0.0 100843
03:00+16ssw334648 0.0 100643
06:00+16ssw2246100 0.0 100629
09:00+21ese2337100 0.0 1006384
12:00+24e3334100 0.0 1005681
15:00+22e2247100 0.0 1006409
18:00+17s1262100 0.0 100930
21:00+16sw12605 0.0 101119